STARLINK-37068, 68085

Orbit data source: Space-Track

STARLINK-37068, 68085 is a payload satellite owned by SpaceX/Seattle (US) in LEO that was launched on Wed, 04 Mar 2026 UTC via an FALCON 9 launch vehicle from the Air Force Eastern Test Range (AFETR). Payload-class satellites include a variety of spacecraft equipped with specific instruments for various scientific and technological missions. These include communications satellites like Starlink; space stations such as the ISS; scientific satellites like the Hubble; Earth observation satellites from companies like Planet Labs, Umbra, and HawkEye 360; GPS; miniature CubeSats for education and research; and military/defense satellites.

Loading next visibility...
Identifier
68085, 2026-042S
Orbit
LEO
Country
Flag of USUS
Related business
Manufacturer
SpaceX/Seattle
Mission
Operational spacecraft
Bus & Motor
STARLINK V2MO, Unknown motor
Mass
575 kg wet, ~530 kg dry
Launch date (UTC)
2026-03-04 (1 month ago)
Launch vehicle
FALCON 9
Launch site
Air Force Eastern Test Range (AFETR)
Object type
Payload
Rocket body
Debris
Shape & HBR
Unknown shape, 17.7 m
Radar Cross Section
RCS unknown

Expand to show TLE details & history
Last TLE update: 10 hours ago

TLE from 10 hours ago
0 STARLINK-37068
1 68085U 26042S   26102.18334671  .00103219  00000-0  66861-3 0  9991
2 68085  53.1600  27.4289 0001408  85.3239 274.7942 15.75263155  7371
Epoch: 2026-04-12T04:24Z
TLE epoch observation values (Epoch: 2026-04-12T04:24:01.155Z)
Latitude
-0.00005°
Longitude
121.0321°
Altitude
344.721 km
Speed
7.703 km/s
True Right ascension
01h 49m 42s
True Declination
0° 00' 00"
Sunlit
Object was in daylight at epoch
Visualization orbit readout
Latitude
Unknown
Longitude
Unknown
Altitude
Unknown
Speed
Unknown
Apparent Right ascension
Unknown
Apparent Declination
Unknown
Sunlit
N/A
Visualization observer readout
Local Sidereal Time
20:38:11
Azimuth
Unknown
Elevation
Unknown
Doppler factor
Unknown
Orbital elements
Apogee altitude
345.09 km
Perigee altitude
343.197 km
Semi-major axis
6,722.281 km
Eccentricity
0.00014
Inclination
53.16°
RAAN
27.4289°
Arg. of periapsis
85.3239°
True anomaly
274.77812°
Mean anomaly
274.7942°
Eccentric anomaly
274.78616°
Mean motion
3.93793 °/min
Orbital period
91.42 mins
BSTAR
0.00066861
Loading maneuver chart data...
Computing Atmospheric mass density...
Loading historical data...
Loading historical data...
Loading historical data...
Loading historical data...
Loading historical data...
Loading historical data...
Loading historical data...

Documentation

Showing up to 5 results
|